Greenwood, FL

12:13 PM CST on February 07, 2016 (GMT -0600)
Marianna Municipal

Weather History for KMAI - February, 2013

Change the Weather History Date:

Thursday, February 7, 2013

  Actual Average Record
Temperature  
Mean Temperature 60 °F 53 °F  
Max Temperature 67 °F 64 °F - ()
Min Temperature 53 °F 42 °F - ()
Degree Days  
Heating Degree Days 5    
Month to date heating degree days 74  
Since 1 July heating degree days 800  
Cooling Degree Days 0    
Month to date cooling degree days 0  
Year to date cooling degree days 53  
Growing Degree Days 10 (Base 50)    
Moisture  
Dew Point 59 °F    
Average Humidity 94    
Maximum Humidity 100    
Minimum Humidity 87    
Precipitation  
Precipitation 2.10 in 0.17 in - ()
Month to date precipitation 2.23 1.17  
Year to date precipitation 3.19 6.21  
Sea Level Pressure  
Sea Level Pressure 29.88 in    
Wind  
Wind Speed 5 mph (NE)    
Max Wind Speed 33 mph    
Max Gust Speed 38 mph    
Visibility 6 miles    
Events Fog , Rain , Thunderstorm    
T = Trace of Precipitation, MM = Missing Value Source: NWS Daily Summary

Daily Weather History Graph

Daily Weather History Graph

Search for Another Location

Airport or City:

Trip Planner

Search our weather history database for the weather conditions in past years. The results will help you decide how hot, cold, wet, or windy it might be!

Date:

Astronomy

Feb. 07, 2013 Rise Set
Actual Time 6:28 AM CST 5:22 PM CST
Civil Twilight 6:03 AM CST 5:47 PM CST
Nautical Twilight 5:34 AM CST 6:15 PM CST
Astronomical Twilight 5:06 AM CST 6:44 PM CST
Moon 4:00 AM CST 2:51 PM CST
Length of Visible Light 11h 44m
Length of Day
10h 54m
Waning Crescent, 9% of the Moon is Illuminated
Feb 7
Waning Crescent
Feb 10
New
Feb 17
First Quarter
Feb 25
Full
Mar 4
Last Quarter

Hourly Weather History & Observations

Time (CST) Temp. Dew Point Humidity Pressure Visibility Wind Dir Wind Speed Gust Speed Precip Events Conditions
12:53 AM 54.0 °F 52.0 °F 93% 30.06 in 10.0 mi Calm Calm - N/A   Clear
1:53 AM 55.0 °F 54.0 °F 96% 30.04 in 10.0 mi Calm Calm - N/A   Partly Cloudy
2:34 AM 55.4 °F 53.6 °F 94% 30.03 in 10.0 mi Calm Calm - N/A   Mostly Cloudy
2:53 AM 55.9 °F 55.0 °F 97% 30.03 in 10.0 mi Calm Calm - N/A   Overcast
3:53 AM 57.9 °F 55.9 °F 93% 30.01 in 10.0 mi Calm Calm - N/A   Overcast
4:26 AM 57.2 °F 55.4 °F 94% 30.00 in 10.0 mi ENE 5.8 mph - N/A   Overcast
4:53 AM 59.0 °F 55.9 °F 90% 29.99 in 10.0 mi East 6.9 mph - N/A   Overcast
5:26 AM 59.0 °F 57.2 °F 94% 30.01 in 8.0 mi Calm Calm - 0.01 in Rain Light Rain
5:53 AM 59.0 °F 57.0 °F 93% 30.00 in 7.0 mi Calm Calm - 0.02 in Rain Light Rain
6:53 AM 57.9 °F 57.0 °F 97% 29.97 in 4.0 mi East 4.6 mph - 0.04 in Rain Light Rain
7:28 AM 57.2 °F 57.2 °F 100% 29.95 in 4.0 mi East 5.8 mph - 0.01 in   Overcast
7:49 AM 59.0 °F 57.2 °F 94% 29.97 in 5.0 mi Calm Calm - 0.01 in Rain Light Rain
7:53 AM 59.0 °F 57.9 °F 96% 29.96 in 6.0 mi East 3.5 mph - 0.01 in Rain Light Rain
8:53 AM 60.1 °F 60.1 °F 100% 29.91 in 3.0 mi East 3.5 mph - 0.03 in Rain Light Rain
9:37 AM 62.6 °F 60.8 °F 94% 29.90 in 3.0 mi East 4.6 mph - 0.04 in Rain Rain
9:50 AM 62.6 °F 60.8 °F 94% 29.89 in 5.0 mi ESE 6.9 mph - 0.06 in Rain Light Rain
9:53 AM 62.1 °F 60.1 °F 93% 29.89 in 6.0 mi East 3.5 mph - 0.06 in Rain Light Rain
10:03 AM 62.6 °F 60.8 °F 94% 29.91 in 2.5 mi South 3.5 mph - 0.04 in Rain Rain
10:11 AM 62.6 °F 60.8 °F 94% 29.89 in 1.2 mi East 3.5 mph - 0.12 in Rain Heavy Rain
10:21 AM 62.6 °F 60.8 °F 94% 29.89 in 1.2 mi ESE 4.6 mph - 0.21 in Rain Heavy Rain
10:53 AM 63.0 °F 62.1 °F 97% 29.84 in 1.2 mi East 8.1 mph - 0.44 in Rain Heavy Rain
11:02 AM 62.6 °F 62.6 °F 100% 29.83 in 1.5 mi ESE 10.4 mph 17.3 mph 0.04 in Rain Rain
11:05 AM 64.4 °F 62.6 °F 94% 29.84 in 3.0 mi ESE 8.1 mph 17.3 mph 0.04 in Rain Light Rain
11:10 AM 64.4 °F 62.6 °F 94% 29.84 in 8.0 mi ESE 5.8 mph 19.6 mph 0.04 in Rain Light Rain
11:20 AM 64.4 °F 62.6 °F 94% 29.83 in 2.5 mi Variable 3.5 mph - 0.09 in Rain Heavy Rain
11:29 AM 64.4 °F 62.6 °F 94% 29.83 in 1.8 mi SSE 9.2 mph - 0.14 in Rain Heavy Rain
11:36 AM 64.4 °F 62.6 °F 94% 29.81 in 3.0 mi SSE 11.5 mph 21.9 mph 0.15 in Rain , Thunderstorm Light Rain
11:46 AM 64.4 °F 64.4 °F 100% 29.81 in 4.0 mi South 12.7 mph 19.6 mph 0.16 in Rain Rain
11:53 AM 66.0 °F 64.0 °F 93% 29.82 in 3.0 mi South 15.0 mph 20.7 mph 0.18 in Rain Rain
12:19 PM 66.2 °F 64.4 °F 94% 29.80 in 9.0 mi SW 5.8 mph - 0.02 in Rain Light Rain
12:39 PM 66.2 °F 64.4 °F 94% 29.79 in 2.5 mi South 13.8 mph 21.9 mph 0.11 in Rain Heavy Rain
12:41 PM 66.2 °F 64.4 °F 94% 29.80 in 1.2 mi SW 12.7 mph 21.9 mph 0.19 in Rain Heavy Rain
12:44 PM 66.2 °F 64.4 °F 94% 29.80 in 0.8 mi WNW 23.0 mph 38.0 mph 0.26 in Rain Heavy Rain
12:50 PM 62.6 °F 60.8 °F 94% 29.80 in 0.2 mi North 21.9 mph 38.0 mph 0.69 in Fog , Rain Heavy Rain
12:53 PM 62.1 °F 61.0 °F 96% 29.79 in 0.2 mi WNW 15.0 mph 38.0 mph 0.89 in Fog , Rain Heavy Rain
1:00 PM 62.6 °F 60.8 °F 94% 29.81 in 0.5 mi NNW 15.0 mph 21.9 mph 0.03 in Fog , Rain Rain
1:03 PM 60.8 °F 60.8 °F 100% 29.81 in 1.8 mi North 10.4 mph 21.9 mph 0.06 in Rain Heavy Rain
1:05 PM 60.8 °F 60.8 °F 100% 29.81 in 3.0 mi North 11.5 mph 21.9 mph 0.07 in Rain Heavy Rain
1:09 PM 60.8 °F 60.8 °F 100% 29.79 in 1.8 mi North 21.9 mph 27.6 mph 0.15 in Rain Heavy Rain
1:21 PM 60.8 °F 60.8 °F 100% 29.81 in 1.8 mi NNW 9.2 mph - 0.27 in Rain Light Rain
1:23 PM 60.8 °F 60.8 °F 100% 29.80 in 4.0 mi North 8.1 mph - 0.27 in Rain Light Rain
1:53 PM 61.0 °F 60.1 °F 97% 29.79 in 10.0 mi North 10.4 mph - 0.28 in Rain Light Rain
2:15 PM 60.8 °F 60.8 °F 100% 29.80 in 5.0 mi NNW 12.7 mph - 0.07 in Rain Rain
2:29 PM 60.8 °F 60.8 °F 100% 29.80 in 2.5 mi North 11.5 mph - 0.14 in Rain Heavy Rain
2:34 PM 60.8 °F 60.8 °F 100% 29.80 in 3.0 mi North 11.5 mph - 0.14 in Rain Light Rain
2:53 PM 62.1 °F 61.0 °F 96% 29.80 in 10.0 mi North 10.4 mph - 0.15 in Rain Light Rain
3:53 PM 62.1 °F 60.1 °F 93% 29.80 in 10.0 mi NNE 6.9 mph - 0.00 in   Overcast
4:09 PM 62.6 °F 59.0 °F 88% 29.81 in 10.0 mi NE 4.6 mph - N/A   Scattered Clouds
4:53 PM 62.1 °F 59.0 °F 90% 29.83 in 10.0 mi North 5.8 mph - N/A   Partly Cloudy
5:06 PM 62.6 °F 59.0 °F 88% 29.84 in 10.0 mi NNW 4.6 mph - N/A   Mostly Cloudy
5:45 PM 60.8 °F 59.0 °F 94% 29.86 in 10.0 mi NNW 5.8 mph - N/A   Overcast
5:53 PM 61.0 °F 59.0 °F 93% 29.86 in 10.0 mi NNW 5.8 mph - N/A   Overcast
6:04 PM 60.8 °F 59.0 °F 94% 29.87 in 10.0 mi NNW 4.6 mph - N/A   Overcast
6:53 PM 60.1 °F 57.0 °F 90% 29.88 in 10.0 mi Calm Calm - N/A   Clear
7:53 PM 57.9 °F 55.9 °F 93% 29.90 in 10.0 mi North 5.8 mph - N/A   Clear
8:19 PM 57.2 °F 55.4 °F 94% 29.91 in 10.0 mi North 8.1 mph - N/A   Mostly Cloudy
8:53 PM 57.0 °F 55.0 °F 93% 29.92 in 10.0 mi North 9.2 mph - N/A   Overcast
9:31 PM 57.2 °F 55.4 °F 94% 29.92 in 10.0 mi NNE 8.1 mph - N/A   Overcast
9:53 PM 55.9 °F 54.0 °F 93% 29.93 in 10.0 mi North 5.8 mph - N/A   Overcast
10:18 PM 55.4 °F 53.6 °F 94% 29.94 in 10.0 mi Calm Calm - N/A   Mostly Cloudy
10:53 PM 55.9 °F 54.0 °F 93% 29.94 in 10.0 mi Calm Calm - N/A   Overcast
11:12 PM 55.4 °F 53.6 °F 94% 29.94 in 10.0 mi Calm Calm - N/A   Overcast
11:46 PM 55.4 °F 53.6 °F 94% 29.94 in 10.0 mi Calm Calm - N/A   Overcast
11:53 PM 55.9 °F 55.0 °F 97% 29.94 in 10.0 mi Calm Calm - N/A   Overcast